NA5X-13 Weather Reports


time (UTC)temp
F
wind
direction
speed
knots
gust
knots
rain 1hr
in
rain 24hr
in
rain mn
in
humidity
%
barometer
mb
20260506033034 77 198 0.9 5.2 0.00 0.00 0.00 86 1007.9
20260506031531 78 152 2.6 5.2 0.00 0.00 0.00 86 1007.6
20260506030027 78 231 2.6 5.2 0.00 0.00 0.00 86 1007.1
20260506024524 78 172 2.6 8.7 0.00 0.00 0.00 85 1006.9
20260506023100 78 217 1.7 7.0 0.00 0.00 0.00 85 1006.7
20260506021534 78 197 2.6 6.1 0.00 0.00 0.00 84 1006.4
20260506020036 79 193 1.7 3.5 0.00 0.00 0.00 83 1006.5
20260506014532 79 207 1.7 7.0 0.00 0.00 0.00 83 1006.4
20260506013029 79 212 2.6 5.2 0.00 0.00 0.00 82 1006.2
20260506011525 80 234 1.7 5.2 0.00 0.00 0.00 81 1006.1
20260506010037 81 233 3.5 7.0 0.00 0.00 0.00 80 1006.1
20260506004534 81 160 2.6 7.8 0.00 0.00 0.00 79 1006.0
20260506003031 82 214 3.5 7.8 0.00 0.00 0.00 78 1005.9
20260506001522 83 185 4.3 8.7 0.00 0.00 0.00 77 1006.1
20260506000056 83 210 2.6 7.8 0.00 0.00 0.00 76 1006.1
20260505234528 83 200 4.3 8.7 0.00 0.00 0.00 76 1006.0
20260505233047 83 233 4.3 9.6 0.00 0.00 0.00 75 1005.9
20260505231535 83 147 4.3 9.6 0.00 0.00 0.00 75 1005.8
20260505230030 84 178 4.3 10.4 0.00 0.00 0.00 74 1005.7
20260505224527 84 143 5.2 10.4 0.00 0.00 0.00 75 1005.8
20260505223024 84 167 5.2 11.3 0.00 0.00 0.00 74 1005.7
20260505221535 84 195 4.3 9.6 0.00 0.00 0.00 73 1005.6
20260505220032 84 172 3.5 11.3 0.00 0.00 0.00 74 1005.7
20260505214522 85 162 4.3 10.4 0.00 0.00 0.00 72 1005.7
20260505213034 85 184 5.2 9.6 0.00 0.00 0.00 73 1006.0
20260505211531 85 226 2.6 12.2 0.00 0.00 0.00 72 1006.1
20260505210030 85 150 4.3 9.6 0.00 0.00 0.00 72 1006.2
20260505204526 85 184 4.3 9.6 0.00 0.00 0.00 72 1006.5
20260505203043 85 176 2.6 11.3 0.00 0.00 0.00 72 1006.6
20260505201540 85 217 4.3 9.6 0.00 0.00 0.00 72 1006.5
20260505200056 84 229 4.3 11.3 0.00 0.00 0.00 72 1006.6
20260505194531 85 175 4.3 8.7 0.00 0.00 0.00 72 1006.7
20260505193024 84 146 3.5 8.7 0.00 0.00 0.00 73 1007.1
20260505191607 84 253 5.2 11.3 0.00 0.00 0.00 73 1007.2
20260505190029 84 207 7.0 14.8 0.00 0.00 0.00 72 1007.0
20260505184549 83 153 5.2 10.4 0.00 0.00 0.00 73 1007.2
20260505183034 83 205 7.8 15.6 0.00 0.00 0.00 73 1007.4
20260505181530 83 197 5.2 12.2 0.00 0.00 0.00 74 1007.4
20260505180024 83 198 5.2 11.3 0.00 0.00 0.00 74 1007.5
20260505174536 81 197 3.5 11.3 0.00 0.00 0.00 75 1007.9
20260505173033 81 215 6.1 13.9 0.00 0.00 0.00 75 1008.2
20260505171528 81 191 5.2 10.4 0.00 0.00 0.00 76 1008.1
20260505170036 80 234 3.5 10.4 0.00 0.00 0.00 77 1008.1
20260505164532 80 156 3.5 11.3 0.00 0.00 0.00 77 1008.1
20260505163027 79 229 3.5 10.4 0.00 0.00 0.00 79 1008.2
20260505161524 78 181 4.3 12.2 0.00 0.00 0.00 80 1008.2
20260505153054 76 203 2.6 8.7 0.00 0.00 0.00 83 1008.3
20260505151529 75 257 5.2 13.0 0.00 0.00 0.00 84 1008.3
20260505124539 71 208 2.6 7.8 0.00 0.00 0.00 88 1007.4
20260505123051 71 191 2.6 7.8 0.00 0.00 0.00 88 1007.3
20260505121526 71 175 4.3 8.7 0.00 0.00 0.00 88 1007.1
20260505120036 71 193 2.6 7.8 0.00 0.00 0.00 88 1006.9
20260505114532 72 205 3.5 8.7 0.00 0.00 0.00 88 1006.9
20260505113028 72 206 2.6 8.7 0.00 0.00 0.00 88 1006.7
20260505111525 72 226 2.6 9.6 0.00 0.00 0.00 88 1006.8
20260505101526 71 184 3.5 7.8 0.00 0.00 0.00 88 1006.9
20260505100037 71 180 2.6 5.2 0.00 0.00 0.00 88 1007.0
20260505094552 71 237 3.5 7.0 0.00 0.00 0.00 88 1007.0
20260505093030 71 203 2.6 7.0 0.00 0.00 0.00 88 1007.1
20260505091528 71 224 3.5 10.4 0.00 0.00 0.00 87 1007.1
20260505090045 71 215 3.5 12.2 0.00 0.00 0.00 87 1007.0
20260505084542 71 176 4.3 9.6 0.00 0.00 0.00 87 1007.1
20260505083029 71 144 3.5 9.6 0.00 0.00 0.00 87 1007.1
20260505081547 71 195 5.2 13.0 0.00 0.00 0.00 87 1007.3
20260505080044 71 217 7.0 13.0 0.00 0.00 0.00 86 1007.5
20260505074551 72 179 6.1 13.9 0.00 0.00 0.00 86 1007.8
20260505073027 72 238 2.6 13.9 0.00 0.00 0.00 86 1008.0
20260505071544 72 213 3.5 14.8 0.00 0.00 0.00 86 1008.3
20260505070058 72 194 5.2 11.3 0.00 0.00 0.00 85 1008.5
20260505064532 72 174 6.1 13.9 0.00 0.00 0.00 85 1008.5
20260505063028 72 205 3.5 9.6 0.00 0.00 0.00 85 1008.7
20260505061601 72 221 3.5 9.6 0.00 0.00 0.00 85 1008.9
20260505060055 72 153 3.5 9.6 0.00 0.00 0.00 85 1008.9
20260505054527 72 242 3.5 7.0 0.00 0.00 0.00 85 1009.1
20260505053037 72 221 1.7 6.1 0.00 0.00 0.00 84 1008.9
20260505051533 73 224 2.6 5.2 0.00 0.00 0.00 84 1009.0
20260505041532 74 203 3.5 7.8 0.00 0.00 0.00 81 1008.9
20260505040028 74 212 3.5 6.1 0.00 0.00 0.00 79 1008.8
20260505034523 74 191 3.5 8.7 0.00 0.00 0.00 78 1008.8